Flag for United Arab Emirates Weather past 2 weeks in Abu Dhabi, Abu Dhabi, United Arab Emirates

Now
93 °F

Sunny.


Feels Like: 93 °F
Forecast: 93 / 103 °F
Wind: 10 mph from Southeast

Location: Abu Dhabi Bateen Airport

Current Time: Aug 29, 2014 at 8:00:16 AM

Latest Report: Aug 29, 2014 at 7:00 AM


Visibility: 10 mi

Pressure: 29.56 "Hg

Humidity: 32%

Dew point: 59 °F

Location of Abu DhabiLocation

Historic Weather in Abu Dhabi — Graph

°F

Abu Dhabi temperature yesterday

Maximum temperature yesterday: 108 °F (at 1:00 PM)
Minimum temperature yesterday: 91 °F (at 12:00 AM)
Average temperature yesterday: 97 °F

Past Weeks' High & Low Weather Summary

 TemperatureHumidityPressure
High117 °F (Aug 17, 2:00 PM)89% (Aug 16, 3:00 AM)29.74 "Hg (Aug 16, 3:00 AM)
Low88 °F (Aug 21, 6:00 AM)13% (Aug 17, 2:00 PM)29.39 "Hg (Aug 16, 2:00 PM)
Average96 °F49%29.56 "Hg
* Reported Aug 14 7:00 AM — Aug 29 7:00 AM, Abu Dhabi, Weather by CustomWeather, © 2014

Note: Actual official high and low records may vary slightly from our data, if they occured in-between our weather recording intervals... More about our weather records

Advertising

Abu Dhabi weather history for previous 24 hours

 ConditionsComfort  
Time TempWeatherWind HumidityBarometerVisibility
7:00 AM
Aug 29
93 °FSunny.10 mph32%29.56 "Hg10 mi
6:00 AM93 °FClear.8 mph32%29.56 "Hg10 mi
5:00 AM91 °FPassing clouds.3 mph36%29.56 "HgN/A
4:00 AM93 °FClear.6 mph34%29.53 "Hg10 mi
3:00 AM93 °FClear.5 mph41%29.53 "Hg10 mi
2:00 AM93 °FClear.8 mph47%29.53 "Hg10 mi
1:00 AM95 °FClear.6 mph47%29.56 "Hg10 mi
12:00 AM93 °FClear.6 mph53%29.56 "Hg10 mi
11:00 PM
Aug 28
93 °FPassing clouds.3 mph59%29.56 "HgN/A
10:00 PM93 °FClear.6 mph59%29.56 "Hg10 mi
9:00 PM95 °FPassing clouds.6 mph50%29.56 "HgN/A
8:00 PM93 °FClear.8 mph67%29.53 "Hg10 mi
7:00 PM95 °FClear.8 mph60%29.50 "Hg10 mi
6:00 PM97 °FSunny.12 mph56%29.50 "Hg10 mi
5:00 PM99 °FPassing clouds.14 mph47%29.50 "HgN/A
4:00 PM102 °FPassing clouds.15 mph35%29.50 "HgN/A
3:00 PM104 °FPassing clouds.15 mph29%29.53 "HgN/A
2:00 PM108 °FPassing clouds.9 mph23%29.53 "HgN/A
1:00 PM108 °FPassing clouds.8 mph22%29.56 "HgN/A
12:00 PM102 °FPassing clouds.8 mph26%29.59 "HgN/A
11:00 AM102 °FPassing clouds.8 mph26%29.59 "HgN/A
10:00 AM99 °FPassing clouds.8 mph29%29.59 "HgN/A
9:00 AM97 °FClear.8 mph30%29.59 "Hg5 mi
8:00 AM95 °FClear.8 mph32%29.59 "Hg5 mi
Weather by CustomWeather, © 2014

See weather overviewHow to use our weather pages